User: anonymous   Login
Location: Unspecified
(0.0000°N, 0.0000°E)
Time: 16:56:49
(UTC+00:00)
Language:

GGSE 1 - Orbit

View from above orbital plane
View from above orbital plane
View from above satellite
View from above satellite

Ground track
Ground track

The orbit data is extracted from the following two-line orbital elements,

1   728U 64001B   19015.92872237 -.00000024 +00000-0 +21402-4 0  9994
2   728 069.9074 274.1956 0016221 241.7070 118.2399 13.97129668801195
Epoch (UTC): 15 January 2019 22:17:21
Eccentricity: 0.0016221
inclination: 69.9074°
perigee height: 892 km
apogee height: 915 km
right ascension of ascending node: 274.1956°
argument of perigee: 241.7070°
revolutions per day: 13.97129668
mean anomaly at epoch: 118.2399°
orbit number at epoch: 80119

The dashed part of the orbit path shows where the satellite is in the earth's shadow,  

DLR